WetterOnline ( https://www.wetteronline.de )

Wetter aktuell Deinstedt

Aktuelles Wetter: Bremervörde (5m)

6-stündlich | Neueste Meldungen
Ortszeit Temperatur Wetter
Mo, 01.03. 7:00 1.4° C Nebel
Mo, 01.03. 1:00 2.8° C Nebel
So, 28.02. 19:00 4.6° C bedeckt
So, 28.02. 13:00 6.2° C bedeckt
So, 28.02. 7:00 3.9° C Nebel
So, 28.02. 1:00 3.3° C Nebel
Sa, 27.02. 19:00 5.0° C wolkenlos
Sa, 27.02. 13:00 8.3° C bedeckt
Ortszeit Temperatur Wetter
Mo, 01.03. 7:30 1.1° C bedeckt
Mo, 01.03. 7:20 1.1° C bedeckt
Mo, 01.03. 7:10 1.3° C bedeckt
Mo, 01.03. 7:00 1.4° C Nebel
Mo, 01.03. 6:50 1.4° C Nebel
Mo, 01.03. 6:40 1.3° C Nebel
Mo, 01.03. 6:30 1.3° C Nebel
Mo, 01.03. 6:00 1.5° C bedeckt
Mo, 01.03. 5:30 1.6° C bedeckt
Mo, 01.03. 5:00 1.8° C bedeckt
Mo, 01.03. 4:30 1.9° C bedeckt
Ortszeit Relative Feuchte Sichtweite
Mo, 01.03. 7:00 100% 0.5 km
Mo, 01.03. 1:00 100% 0.4 km
So, 28.02. 19:00 100% 10 km
So, 28.02. 13:00 95% 20 km
So, 28.02. 7:00 100% 0.9 km
So, 28.02. 1:00 100% 0.3 km
Sa, 27.02. 19:00 86% 40 km
Sa, 27.02. 13:00 84% 35 km
Ortszeit Relative Feuchte Sichtweite
Mo, 01.03. 7:30 100% 1.6 km
Mo, 01.03. 7:20 100% -
Mo, 01.03. 7:10 100% -
Mo, 01.03. 7:00 100% 0.5 km
Mo, 01.03. 6:50 100% -
Mo, 01.03. 6:40 100% -
Mo, 01.03. 6:30 100% 0.6 km
Mo, 01.03. 6:00 100% 5.0 km
Mo, 01.03. 5:30 100% 1.2 km
Mo, 01.03. 5:00 100% 1.9 km
Mo, 01.03. 4:30 100% 2.0 km
Ortszeit Niederschlagsmenge Niederschlagsart
Mo, 01.03. 7:00 0.1 l/m2 in 12 Std. -
Mo, 01.03. 1:00 0.1 l/m2 in 6 Std. Sprühregen
So, 28.02. 19:00 0.0 l/m2 in 12 Std. -
So, 28.02. 13:00 0.0 l/m2 in 6 Std. -
So, 28.02. 7:00 0.0 l/m2 in 12 Std. -
So, 28.02. 1:00 0.0 l/m2 in 6 Std. -
Sa, 27.02. 19:00 0.1 l/m2 in 12 Std. -
Sa, 27.02. 13:00 0.1 l/m2 in 6 Std. Sprühregen
Ortszeit Niederschlagsmenge Niederschlagsart
Mo, 01.03. 7:30 0.0 l/m2 in 1 Std. -
Mo, 01.03. 7:20 keine Meldung -
Mo, 01.03. 7:10 keine Meldung -
Mo, 01.03. 7:00 0.0 l/m2 in 1 Std. -
Mo, 01.03. 6:50 keine Meldung -
Mo, 01.03. 6:40 keine Meldung -
Mo, 01.03. 6:30 0.0 l/m2 in 1 Std. -
Mo, 01.03. 6:00 0.0 l/m2 in 1 Std. -
Mo, 01.03. 5:30 0.0 l/m2 in 1 Std. -
Mo, 01.03. 5:00 0.0 l/m2 in 1 Std. -
Mo, 01.03. 4:30 0.0 l/m2 in 1 Std. -
Ortszeit Stärke Spitze Richtung
km/h Bft. km/h Grad Sektor
Mo, 01.03. 7:00 0 0 14 - -
Mo, 01.03. 1:00 6 1 17 320° NW
So, 28.02. 19:00 9 2 20 320° NW
So, 28.02. 13:00 7 2 18 290° W
So, 28.02. 7:00 7 2 18 340° N
So, 28.02. 1:00 7 2 14 300° NW
Sa, 27.02. 19:00 9 2 28 300° NW
Sa, 27.02. 13:00 11 2 29 320° NW
Ortszeit Stärke Spitze Richtung
km/h Bft. km/h Grad Sektor
Mo, 01.03. 7:30 7 2 11 70° O
Mo, 01.03. 7:20 7 2 - 70° O
Mo, 01.03. 7:10 6 1 - 60° NO
Mo, 01.03. 7:00 0 0 11 - -
Mo, 01.03. 6:50 0 0 - 210° SW
Mo, 01.03. 6:40 2 1 - 10° N
Mo, 01.03. 6:30 4 1 11 310° NW
Mo, 01.03. 6:00 7 2 14 10° N
Mo, 01.03. 5:30 7 2 9 330° NW
Mo, 01.03. 5:00 7 2 14 20° N
Mo, 01.03. 4:30 7 2 11 340° N
Ortszeit Untergrenze Bedeckung Gattung
total tief tief mittel hoch
Mo, 01.03. 7:00 30 m 8/8 8/8 - - -
Mo, 01.03. 1:00 30 m 8/8 8/8 - - -
So, 28.02. 19:00 120 m 8/8 8/8 - - -
So, 28.02. 13:00 210 m 8/8 8/8 - - -
So, 28.02. 7:00 60 m 8/8 8/8 - - -
So, 28.02. 1:00 30 m 8/8 8/8 - - -
Sa, 27.02. 19:00 - 0/8 0/8 - - -
Sa, 27.02. 13:00 510 m 8/8 8/8 - - -
Ortszeit Bedeckungsgrad in Achtel und Wolkenuntergrenze
Mo, 01.03. 7:30 8(30m)
Mo, 01.03. 7:20 8(30m)
Mo, 01.03. 7:10 8(30m)
Mo, 01.03. 7:00 8(30m)
Mo, 01.03. 6:50 8(30m)
Mo, 01.03. 6:40 8(30m)
Mo, 01.03. 6:30 8(30m)
Mo, 01.03. 6:00 8(30m)
Mo, 01.03. 5:30 8(30m)
Mo, 01.03. 5:00 8(60m)
Mo, 01.03. 4:30 8(60m)
Ortszeit Luftdruck NN (hPa) Tendenz (hPa in 3 Std.)
Mo, 01.03. 7:00 1037 + 0,2
Mo, 01.03. 1:00 1037 + 0,2
So, 28.02. 19:00 1037 - 0,1
So, 28.02. 13:00 1039 - 0,2
So, 28.02. 7:00 1039 - 0,3
So, 28.02. 1:00 1040 0,0
Sa, 27.02. 19:00 1040 + 0,3
Sa, 27.02. 13:00 1040 + 0,8
Ortszeit Luftdruck NN (hPa) Tendenz (hPa in 3 Std.)
Mo, 01.03. 7:30 1037 + 0,3
Mo, 01.03. 7:20 1037 keine Meldung
Mo, 01.03. 7:10 1037 keine Meldung
Mo, 01.03. 7:00 1037 + 0,2
Mo, 01.03. 6:50 1037 keine Meldung
Mo, 01.03. 6:40 1037 keine Meldung
Mo, 01.03. 6:30 1037 0,0
Mo, 01.03. 6:00 1037 0,0
Mo, 01.03. 5:30 1037 - 0,2
Mo, 01.03. 5:00 1037 - 0,4
Mo, 01.03. 4:30 1037 - 0,5
Ortszeit Schneehöhe (cm)
Mo, 01.03. 7:00 0
Mo, 01.03. 1:00 0
So, 28.02. 19:00 0
So, 28.02. 13:00 0
So, 28.02. 7:00 0
So, 28.02. 1:00 0
Sa, 27.02. 19:00 0
Sa, 27.02. 13:00 0
Ortszeit Schneehöhe (cm)
Mo, 01.03. 7:30 0
Mo, 01.03. 7:20 0
Mo, 01.03. 7:10 0
Mo, 01.03. 7:00 0
Mo, 01.03. 6:50 0
Mo, 01.03. 6:40 0
Mo, 01.03. 6:30 0
Mo, 01.03. 6:00 0
Mo, 01.03. 5:30 0
Mo, 01.03. 5:00 0
Mo, 01.03. 4:30 0
Link zu dieser Seite / Seite empfehlen

Das Wetter in ...